Regional Weather Roundup
Issued by NWS

Home | Current Version | Previous Version | Graphics & Text | Print | Product List | Glossary On
Versions: 1 2 3 4 5 6 7 8 9 10 11 12 13 14 15 16 17 18 19 20 21 22 23 24 25 26 27 28 29 30 31 32 33 34 35 36 37 38 39 40 41 42 43 44 45 46 47 48 49 50
000
ASUS43 KMKX 241613
RWRWI

WISCONSIN REGIONAL WEATHER ROUNDUP
NATIONAL WEATHER SERVICE MILWAUKEE/SULLIVAN WI
1100 AM CDT SUN MAY 24 2015

NOTE: "FAIR" INDICATES FEW OR NO CLOUDS BELOW 12,000 FEET WITH NO
SIGNIFICANT WEATHER AND/OR OBSTRUCTIONS TO VISIBILITY.

WIZ001-002-006>008-014>016-023>028-241700-
NORTHWEST WISCONSIN

CITY           SKY/WX    TMP DP  RH WIND       PRES   REMARKS
SUPERIOR ARPT  CLOUDY    65  46  50 NE5       30.09S
ASHLAND        CLOUDY    70  49  47 CALM      30.10F
HAYWARD        CLOUDY    67  48  50 E3        30.09F
SIREN          CLOUDY    63  51  66 E3        30.06F
CUMBERLAND     CLOUDY    64  46  52 SE6       30.07F
RICE LAKE      CLOUDY    67  48  51 SE9       30.09S
CHETEK         CLOUDY    66  52  60 E7        30.08S
LADYSMITH      CLOUDY    69  49  48 SE6       30.11F
EAU CLAIRE     NOT AVBL
MENOMONIE      CLOUDY    66  50  57 SE9       30.07F
NEW RICHMOND   CLOUDY    65  51  60 E6        30.05F
OSCEOLA        CLOUDY    65  53  63 SE6       30.07F
$$

WIZ003>005-009-010-017-018-241700-
NORTH CENTRAL WISCONSIN

CITY           SKY/WX    TMP DP  RH WIND       PRES   REMARKS
MANITOWISH WTR CLOUDY    68  45  44 S5        30.13S
ARBOR VITAE    CLOUDY    72  45  37 S7        30.13S
WOODRUFF       CLOUDY    72  45  37 S7        30.13S
RHINELANDER    CLOUDY    72  44  36 S8        30.13F
EAGLE RIVER    CLOUDY    71  40  32 S5        30.13S
LAND O LAKES   CLOUDY    72  39  30 S7        30.14S
PHILLIPS       CLOUDY    68  49  50 SE5       30.11S
TOMAHAWK       CLOUDY    68  48  49 CALM      30.13F
MEDFORD        CLOUDY    67  49  51 SE6       30.12S
MERRILL        CLOUDY    69  50  51 SE5       30.13S
$$

WIZ029-030-035-036-043>047-241700-
CENTRAL WISCONSIN

CITY           SKY/WX    TMP DP  RH WIND       PRES   REMARKS
WAUSAU         CLOUDY    70  48  45 S7        30.10F
MOSINEE        SUNNY     66  52  59 S10       30.14S
MARSHFIELD     LGT RAIN  64  51  62 S15G23    30.13R
STEVENS POINT  LGT RAIN  66  49  54 S10       30.14R
WAUPACA        CLOUDY    68  52  56 S9        30.15R
WAUTOMA        NOT AVBL
WISC RAPIDS    LGT RAIN  61  53  75 SW9       30.16R
CAMP DOUGLAS   CLOUDY    59  59 100 SE8       30.13F
$$

WIZ011>013-019>022-031-037>040-048>050-241700-
NORTHEAST WISCONSIN

CITY           SKY/WX    TMP DP  RH WIND       PRES   REMARKS
ANTIGO         CLOUDY    68  50  51 S6        30.15R
SHAWANO        CLOUDY    71  49  45 CALM      30.13S
OCONTO         CLOUDY    70  51  50 CALM      30.13R
STURGEON BAY   CLOUDY    66  48  52 E6        30.17R
GREEN BAY      CLOUDY    72  51  47 S8        30.14S
MANITOWOC      NOT AVBL
APPLETON       CLOUDY    66  52  59 S7        30.15R
CLINTONVILLE   CLOUDY    68  48  49 S5        30.13S
OSHKOSH        LGT RAIN  63  55  75 SW8       30.17R
$$

WIZ032>034-041-042-053>061-241700-
SOUTHWEST WISCONSIN

CITY           SKY/WX    TMP DP  RH WIND       PRES   REMARKS
LA CROSSE      LGT RAIN  61  57  87 SE6       30.09F
SPARTA         LGT RAIN  59  54  84 SE6       30.13F
VIROQUA        CLOUDY    57  57 100 E9        30.10F
BOSCOBEL       LGT RAIN  60  57  89 E7        30.10F FOG
PRAIRIE DU CHI LGT RAIN  59  56  90 E10       30.07F
PLATTEVILLE    CLOUDY    59  57  94 E10       30.10F
$$

WIZ056-057-062-063-064-067-068-241700-
SOUTH CENTRAL WISCONSIN

CITY           SKY/WX    TMP DP  RH WIND       PRES   REMARKS
REEDSBURG      LGT RAIN  57  55  93 CALM      30.14F
BARABOO/DELLS  LGT RAIN  58  55  88 SE3       30.14F
LONE ROCK      NOT AVBL
MINERAL POINT  RAIN      57  55  94 E8        30.12F
MADISON        LGT RAIN  61  56  83 SE6       30.16S
MIDDLETON      CLOUDY    62  54  76 SE5       30.15F
WATERTOWN      LGT RAIN  62  60  93 CALM      30.16F
MONROE         RAIN      59  55  88 E7        30.14S
JANESVILLE     LGT RAIN  63  57  82 SE6       30.15F
$$

WIZ051-052-058>065-066-070>072-241700-
SOUTHEAST WISCONSIN

CITY           SKY/WX    TMP DP  RH WIND       PRES   REMARKS
MILWAUKEE      CLOUDY    66  54  65 W3        30.18S
WAUKESHA       LGT RAIN  61  54  77 CALM      30.19R FOG
MILWAUKEE/TIMM LGT RAIN  64  54  68 CALM      30.19R
RACINE         LGT RAIN  64  51  62 SE5       30.19S
BURLINGTON     LGT RAIN  64  52  64 CALM      30.17S
KENOSHA        CLOUDY    68  54  60 SE3       30.18R
FOND DU LAC    LGT RAIN  63  56  78 SW6       30.18R
SHEBOYGAN      LGT RAIN  66  53  63 SW18      30.19R
WEST BEND      LGT RAIN  63  54  72 SW3       30.19R
JUNEAU         LGT RAIN  61  55  79 S7        30.19S
$$

LSZ147-162-241700-
LAKE SUPERIOR

STATION/POSITION TIME  TEMP    WIND        PRES    WAVE
                       AIR SEA DIR/SP/G            HT/PER
                 (UTC) (F)     (DEG/KT/KT) (MB)    (FT/S)
W MID LAKE BUOY  1450   43 37  210/  8/ 10   N/A     1
DEVILS ISLAND    1500   63     220/  5/  7   N/A
PORT WING        1500   59      CALM  /  2   N/A
SAXON HARBOR     1500   59      CALM  /  2   N/A
$$

LMZ867-665-643>646-241700-
LAKE MICHIGAN

STATION/POSITION TIME  TEMP    WIND        PRES    WAVE
                       AIR SEA DIR/SP/G            HT/PER
                 (UTC) (F)     (DEG/KT/KT) (MB)    (FT/S)
N MID LAKE BUOY  1450   44 36  200/  6/  8   N/A     0
NORTHPORT PIER   1500   52     140/  9/ 11   N/A
SISTER BAY       1503   67     170/  3/  6   N/A
KEWAUNEE LAKESHO 1500   50     170/  7/  8   N/A
SHEBOYGAN LAKESH 1500   56     190/ 14/ 15   N/A
PORT WASHINGTON  1500   53     220/  3/  6   N/A
ATWATER BUOY     1500   51 46  160/  4/  6   N/A
MILWAUKEE LAKESH 1500   54     180/  2/  3   N/A
S MID LAKE BUOY  1450   44 38  180/ 10/ 10   N/A     0
$$

TC  - TEMPERATURE IN CELSIUS
VSB - VISIBILITY IN STATUTE MILES
WCI - WIND CHILL INDEX
HX  - HEAT INDEX



USA.gov is the U.S. government's official web portal to all federal, state and local government web resources and services.